Marshalltown, IA

5:00 AM CST on December 13, 2019 (GMT -0600)
Marshalltown Municipal

Weather History for KMIW - November, 2019

Change the Weather History Date:

Saturday, November 16, 2019

  Actual Average Record
Temperature  
Mean Temperature 36 °F 36 °F  
Max Temperature 46 °F 46 °F 72 °F (2001)
Min Temperature 26 °F 26 °F 7 °F (2014)
Degree Days  
Heating Degree Days 29 29  
Month to date heating degree days 592 400  
Since 1 July heating degree days 1244 1033  
Cooling Degree Days 0 0  
Month to date cooling degree days 0 0  
Year to date cooling degree days 734 728  
Moisture  
Dew Point 31 °F    
Average Humidity 83    
Maximum Humidity 100    
Minimum Humidity 65    
Precipitation  
Precipitation 0.00 in 0.07 in 0.09 in (2015)
Month to date precipitation 0.13 1.57  
Sea Level Pressure  
Sea Level Pressure 30.20 in    
Wind  
Wind Speed 12 mph (SE)    
Max Wind Speed 21 mph    
Max Gust Speed 27 mph    
Visibility 8 miles    
Events      
T = Trace of Precipitation, MM = Missing Value Source: NWS Daily Summary

Daily Weather History Graph

Daily Weather History Graph

Search for Another Location

Airport or City:

Astronomy

Nov. 16, 2019 Rise Set
Actual Time 7:02 AM CST 4:49 PM CST
Civil Twilight 6:32 AM CST 5:19 PM CST
Nautical Twilight 5:58 AM CST 5:53 PM CST
Astronomical Twilight 5:25 AM CST 6:26 PM CST
Moon 8:21 PM CST (11/16) 10:59 AM CST (11/16)
Length of Visible Light 10h 47m
Length of Day
9h 46m
Waning Gibbous, 82% of the Moon is Illuminated
Nov 16
Waning Gibbous
Nov 19
Last Quarter
Nov 26
New
Dec 4
First Quarter
Dec 11
Full

Hourly Weather History & Observations

Time (CST) Temp. Windchill Dew Point Humidity Pressure Visibility Wind Dir Wind Speed Gust Speed Precip Events Conditions
12:53 AM 28.0 °F 22.8 °F 27.0 °F 96% 30.33 in 10.0 mi ESE 4.6 mph - N/A   Clear
1:53 AM 27.0 °F 20.5 °F 26.1 °F 96% 30.34 in 9.0 mi SE 5.8 mph - N/A   Clear
2:53 AM 27.0 °F 18.7 °F 26.1 °F 96% 30.33 in 8.0 mi SE 8.1 mph - N/A   Clear
3:53 AM 27.0 °F 18.7 °F 26.1 °F 96% 30.32 in 7.0 mi SE 8.1 mph - N/A   Clear
4:53 AM 28.0 °F 19.3 °F 27.0 °F 96% 30.32 in 6.0 mi SE 9.2 mph - N/A   Clear
5:53 AM 28.0 °F 19.3 °F 27.0 °F 96% 30.31 in 5.0 mi SE 9.2 mph - N/A   Clear
6:53 AM 28.0 °F 18.6 °F 27.0 °F 96% 30.31 in 5.0 mi SE 10.4 mph - N/A   Clear
7:53 AM 28.9 °F 19.2 °F 28.0 °F 96% 30.31 in 4.0 mi SE 11.5 mph - N/A   Clear
8:53 AM 30.9 °F 21.7 °F 30.0 °F 96% 30.30 in 4.0 mi SSE 11.5 mph - N/A   Clear
9:53 AM 33.1 °F 23.9 °F 30.9 °F 92% 30.28 in 5.0 mi SSE 12.7 mph - N/A   Clear
10:53 AM 37.0 °F 29.3 °F 33.1 °F 86% 30.27 in 7.0 mi SSE 11.5 mph - N/A   Clear
11:53 AM 41.0 °F 32.8 °F 34.0 °F 76% 30.22 in 9.0 mi SE 16.1 mph - N/A   Clear
12:53 PM 44.1 °F 36.5 °F 34.0 °F 68% 30.17 in 10.0 mi SSE 17.3 mph 24.2 mph N/A   Clear
1:53 PM 45.0 °F 38.2 °F 35.1 °F 68% 30.15 in 10.0 mi SSE 15.0 mph 24.2 mph N/A   Clear
2:53 PM 45.0 °F 38.2 °F 34.0 °F 65% 30.12 in 10.0 mi SSE 15.0 mph 24.2 mph N/A   Clear
3:53 PM 44.1 °F 36.8 °F 35.1 °F 71% 30.11 in 10.0 mi SE 16.1 mph - N/A   Clear
4:53 PM 42.1 °F 34.2 °F 35.1 °F 76% 30.10 in 8.0 mi SE 16.1 mph - N/A   Clear
5:53 PM 39.9 °F 31.4 °F 34.0 °F 79% 30.09 in 9.0 mi SE 16.1 mph - N/A   Clear
6:53 PM 37.9 °F 29.2 °F 34.0 °F 86% 30.09 in 9.0 mi SE 15.0 mph - N/A   Clear
7:53 PM 37.0 °F 28.5 °F 33.1 °F 86% 30.09 in 8.0 mi SSE 13.8 mph - N/A   Clear
8:53 PM 36.0 °F 28.0 °F 33.1 °F 89% 30.10 in 8.0 mi SSE 11.5 mph - N/A   Clear
9:53 PM 36.0 °F 28.5 °F 33.1 °F 89% 30.10 in 8.0 mi SSE 10.4 mph - N/A   Clear
10:53 PM 36.0 °F 27.1 °F 33.1 °F 89% 30.08 in 8.0 mi SSE 13.8 mph - N/A   Clear
11:53 PM 35.1 °F 27.4 °F 33.1 °F 92% 30.07 in 7.0 mi SSE 10.4 mph - N/A   Clear